Lid_Strength_Index
3 3 3 4 3 3 3 3 3 4 4 4 4 4 4 4 4 8 11 7 6 0 -1 1 2 2 4 5 5 6 11 13 11 11 9 8 9 7 6 7 8 7 7 6 6
4 4 4 4 4 4 4 4 4 3 3 3 3 4 4 3 7 9 6 1 -0 -2 4 3 4 4 7 6 6 8 12 11 8 8 8 8 8 7 7 7 7 7 6 5 6
4 4 4 5 4 5 4 4 4 4 3 3 3 4 4 4 11 12 1 1 0 -1 6 3 3 5 8 8 7 8 10 8 7 6 7 7 7 6 7 8 6 7 5 6 6
3 4 4 4 4 5 5 5 4 4 4 4 4 4 4 7 16 8 -2 -2 -1 1 6 6 5 8 9 9 7 10 7 6 6 6 7 7 6 7 6 6 5 5 5 6 7
4 3 3 4 4 4 5 5 6 5 5 5 5 4 6 11 12 9 1 4 2 3 7 8 8 7 9 9 8 9 7 7 6 6 6 5 7 7 6 4 4 5 6 6 7
4 4 4 4 4 4 4 4 4 5 5 5 4 5 8 14 8 9 6 8 8 6 6 8 9 8 10 11 11 9 8 8 8 7 6 7 7 7 6 4 6 6 7 7 7
4 4 4 4 4 4 4 4 4 4 4 5 4 6 9 12 7 6 7 9 9 9 9 6 6 9 10 12 10 11 13 11 10 9 9 7 11 9 7 6 7 7 7 7 6
4 4 4 4 4 4 4 4 4 4 4 4 4 7 12 6 6 7 6 7 7 8 9 8 6 8 11 10 11 12 13 15 11 9 9 9 13 9 7 8 8 8 7 7 7
4 4 4 4 4 4 4 4 4 4 4 4 7 9 13 6 7 6 7 9 8 8 10 8 7 10 11 12 14 14 15 15 14 10 10 10 12 9 8 8 8 8 7 7 7
5 4 4 5 5 4 4 4 4 6 6 6 7 11 10 12 7 7 6 7 10 11 11 11 10 12 14 14 17 16 16 15 14 11 12 12 11 10 9 9 9 8 8 8 7
5 5 5 5 5 5 6 9 11 11 9 12 11 11 10 7 6 7 7 7 9 12 15 13 15 14 13 12 13 13 14 14 12 10 11 12 11 10 9 9 9 9 8 8 8
5 5 5 4 4 3 5 11 9 9 13 9 9 9 8 7 11 9 7 10 11 15 13 13 16 13 11 12 12 12 14 14 11 10 11 11 12 10 10 9 9 9 8 8 8
4 4 3 2 1 5 8 7 5 5 11 10 8 9 9 8 11 10 8 10 11 14 14 15 14 11 11 12 13 13 13 13 13 11 11 12 13 12 10 9 9 8 8 8 8
2 1 1 1 4 6 6 4 3 2 12 12 9 8 8 9 12 8 7 9 11 13 14 14 11 13 13 13 12 15 11 11 11 13 16 11 17 13 11 10 9 9 9 9 7
0 0 -0 0 3 4 4 2 2 5 19 9 7 4 6 10 10 10 7 8 11 12 13 15 13 14 14 13 10 13 10 11 12 14 14 13 15 14 12 11 10 9 8 9 7
-1 -0 -0 1 2 3 2 2 4 13 19 10 7 9 9 8 9 8 9 9 8 12 12 13 10 12 12 11 10 10 12 13 14 14 18 14 14 15 13 11 10 9 8 7 7
-0 -0 0 1 4 3 3 5 14 18 9 11 10 9 9 11 9 10 11 13 13 15 15 14 13 12 11 13 12 13 16 20 20 20 19 13 14 14 11 10 9 9 9 7 7
-0 -0 1 1 3 2 4 10 17 12 11 8 9 9 12 11 11 11 12 13 11 13 14 16 17 13 11 13 14 14 15 19 21 20 17 13 16 13 9 8 8 8 8 7 7
0 4 5 3 2 1 7 14 14 12 9 10 9 12 13 12 12 12 13 12 11 11 16 15 15 10 10 11 11 15 15 13 16 15 17 15 13 10 9 9 9 9 8 8 8
3 3 5 0 1 3 10 12 11 8 8 8 13 10 14 14 14 13 13 10 11 10 11 14 16 11 10 10 10 13 11 16 17 19 20 16 15 14 11 10 9 9 9 8 7
6 7 5 -0 1 6 13 12 10 7 7 9 11 12 12 13 13 14 13 11 10 12 11 13 15 14 11 13 14 15 15 16 15 16 18 19 16 11 10 10 9 9 9 8 7
5 11 4 1 9 8 12 9 7 8 6 8 8 10 11 11 13 14 14 13 9 10 14 12 15 16 14 12 9 11 13 14 16 18 16 16 16 10 10 10 9 9 8 8 7
7 8 3 3 12 11 9 9 8 9 9 9 10 9 8 11 14 12 12 9 10 11 13 12 16 18 16 14 12 12 13 13 14 15 16 17 16 10 9 9 9 9 8 7 7
9 11 8 6 7 9 11 11 11 7 8 8 9 8 10 10 11 13 12 10 9 10 8 10 15 16 17 16 13 14 12 12 14 17 15 14 14 10 9 9 9 9 8 8 7
9 10 7 11 10 9 9 10 11 11 8 8 10 9 11 13 11 12 11 11 10 9 10 12 18 15 14 13 12 13 12 12 13 13 15 13 13 11 10 10 9 8 8 7 7
10 9 6 8 7 10 10 12 11 10 9 10 11 9 10 12 11 12 11 11 12 10 11 12 18 16 17 12 12 13 12 12 12 12 13 12 13 10 9 8 8 8 7 7 7
7 6 6 8 8 12 13 10 10 9 8 8 9 10 11 10 8 7 9 9 10 11 13 13 16 18 19 15 14 15 13 13 12 11 12 13 11 10 9 8 8 8 7 7 6